This is the latest recevied weather packets stored in our database for station/object W5DNT. If no packets are shown the sender has not sent any weather packets the latest 10 day(s).
| Time | Temp. | Humidity | Pressure | Rain* | Wind** | Luminosity | Snow |
|---|---|---|---|---|---|---|---|
| 1777468534 | - | - | 1012.1 hPa | 0 mm | - | - | - |
| 1777467634 | - | - | 1012 hPa | 0 mm | - | - | - |
| 1777466724 | - | - | 1011.7 hPa | 0 mm | - | - | - |
| 1777465820 | - | - | 1011.2 hPa | 0 mm | - | - | - |
| 1777464916 | - | - | 1010.7 hPa | 0 mm | - | - | - |
| 1777464015 | 23.33° C | 85% | 1010.4 hPa | 0 mm | - | - | - |
| 1777463113 | 23.33° C | 85% | 1010.3 hPa | 0 mm | - | - | - |
| 1777462213 | 23.33° C | 85% | 1010.2 hPa | 0 mm | - | - | - |
| 1777461319 | 22.78° C | 84% | 1010.2 hPa | 0 mm | - | - | - |
| 1777460418 | 22.78° C | 85% | 1010 hPa | 0 mm | - | - | - |
| 1777459510 | 23.33° C | 85% | 1009.8 hPa | 0 mm | - | - | - |
| 1777458609 | 23.33° C | 86% | 1009.8 hPa | 0 mm | - | - | - |
| 1777457708 | 23.33° C | 86% | 1009.8 hPa | 0 mm | - | - | - |
| 1777456808 | 23.89° C | 86% | 1009.9 hPa | 0 mm | - | - | - |
| 1777455906 | 23.89° C | 87% | 1009.7 hPa | 0 mm | - | - | - |
| 1777455011 | 23.89° C | 87% | 1009.6 hPa | 0 mm | - | - | - |
| 1777454109 | 23.33° C | 87% | 1009.6 hPa | 0 mm | - | - | - |
| 1777453206 | 23.33° C | 87% | 1009.6 hPa | 0 mm | - | - | - |
| 1777452308 | 23.89° C | 86% | 1010 hPa | 0 mm | - | - | - |
| 1777451408 | 23.89° C | 86% | 1009.7 hPa | 0 mm | - | - | - |
| 1777450502 | 23.89° C | 86% | 1009.9 hPa | 0 mm | - | - | - |
| 1777449660 | 23.89° C | 86% | 1010.1 hPa | 0 mm | - | - | - |
| 1777448771 | 23.89° C | 86% | 1010.5 hPa | 0 mm | - | - | - |
| 1777447862 | 24.44° C | 85% | 1010.5 hPa | 0 mm | - | - | - |
| 1777446978 | 24.44° C | 85% | 1010.6 hPa | 0 mm | - | - | - |
* Rain latest hour (hover to see other rain measurements)
** Current wind speed in m/s (hover to see current wind gust speed)